Time,TemperatureF,DewpointF,PressureIn,WindDirection,WindDirectionDegrees,WindSpeedMPH,WindSpeedGustMPH,Humidity,HourlyPrecipIn,Conditions,Clouds,dailyrainin,SoftwareType,DateUTC
2013-04-10 12:26:00,52.7,28.5,30.00,North,1,7.7,7.7,39,0.00,,---,0.00,VWS V14.01,2013-04-10 16:26:00,
2013-04-10 12:27:00,52.7,28.5,30.00,NNW,334,8.2,8.2,39,0.00,,---,0.00,VWS V14.01,2013-04-10 16:27:00,
2013-04-10 12:28:00,52.5,28.3,30.00,North,349,10.5,10.5,39,0.00,,---,0.00,VWS V14.01,2013-04-10 16:28:00,
2013-04-10 12:30:00,52.0,27.8,30.00,NW,320,11.6,12.1,39,0.00,,---,0.00,VWS V14.01,2013-04-10 16:30:00,
2013-04-10 12:37:00,52.3,28.8,30.00,NNW,328,8.7,8.7,40,0.00,,---,0.00,VWS V14.01,2013-04-10 16:37:00,
2013-04-10 12:42:00,52.7,28.5,30.00,NNE,25,10.0,10.0,39,0.00,,---,0.00,VWS V14.01,2013-04-10 16:42:00,
2013-04-10 12:47:00,52.7,28.5,30.00,WNW,298,4.1,4.6,39,0.00,,---,0.00,VWS V14.01,2013-04-10 16:47:00,
2013-04-10 12:52:00,52.5,28.3,30.00,NNE,28,9.3,12.6,39,0.00,,---,0.00,VWS V14.01,2013-04-10 16:52:00,
2013-04-10 12:57:00,52.2,28.0,30.00,North,353,6.7,7.2,39,0.00,,---,0.00,VWS V14.01,2013-04-10 16:57:00,
2013-04-10 13:03:00,51.8,27.6,30.00,NNW,329,6.2,10.0,39,0.00,,---,0.00,VWS V14.01,2013-04-10 17:03:00,
2013-04-10 13:08:00,51.6,28.1,30.00,NW,317,3.1,7.2,40,0.00,,---,0.00,VWS V14.01,2013-04-10 17:08:00,
2013-04-10 13:15:00,51.8,27.6,30.00,North,7,9.3,10.0,39,0.00,,---,0.00,VWS V14.01,2013-04-10 17:15:00,
2013-04-10 13:20:00,51.6,28.1,30.00,North,9,3.1,10.0,40,0.00,,---,0.00,VWS V14.01,2013-04-10 17:20:00,
2013-04-10 13:25:00,51.6,28.1,30.00,North,357,6.2,6.2,40,0.00,,---,0.00,VWS V14.01,2013-04-10 17:25:00,
2013-04-10 13:30:00,51.8,27.6,30.00,NE,39,4.1,7.2,39,0.00,,---,0.00,VWS V14.01,2013-04-10 17:30:00,
2013-04-10 13:35:00,52.2,28.0,30.00,North,350,4.6,4.6,39,0.00,,---,0.00,VWS V14.01,2013-04-10 17:35:00,
2013-04-10 13:40:00,52.2,28.0,30.00,NNE,33,7.2,10.0,39,0.00,,---,0.00,VWS V14.01,2013-04-10 17:40:00,
2013-04-10 13:47:00,52.0,27.8,30.00,North,357,8.7,8.7,39,0.00,,---,0.00,VWS V14.01,2013-04-10 17:47:00,
2013-04-10 13:54:00,51.8,27.6,30.00,NNE,18,6.2,7.7,39,0.00,,---,0.00,VWS V14.01,2013-04-10 17:54:00,
2013-04-10 13:59:00,51.3,27.2,30.00,NW,325,7.2,7.2,39,0.00,,---,0.00,VWS V14.01,2013-04-10 17:59:00,
2013-04-10 14:04:00,51.3,27.2,30.00,North,4,4.1,7.7,39,0.00,,---,0.00,VWS V14.01,2013-04-10 18:04:00,
2013-04-10 14:11:00,51.6,28.1,30.00,North,4,3.1,7.2,40,0.00,,---,0.00,VWS V14.01,2013-04-10 18:11:00,
2013-04-10 14:17:00,52.0,27.8,30.00,ENE,72,3.6,8.7,39,0.00,,---,0.00,VWS V14.01,2013-04-10 18:17:00,
2013-04-10 14:22:00,52.3,28.1,30.00,North,8,0.0,6.7,39,0.00,,---,0.00,VWS V14.01,2013-04-10 18:22:00,
2013-04-10 14:27:00,52.3,28.1,30.00,North,0,4.1,6.7,39,0.00,,---,0.00,VWS V14.01,2013-04-10 18:27:00,
2013-04-10 14:32:00,52.0,25.9,30.00,NE,43,9.3,9.3,36,0.00,,---,0.00,VWS V14.01,2013-04-10 18:32:00,
2013-04-10 14:39:00,52.0,27.8,30.00,North,357,3.1,3.1,39,0.00,,---,0.00,VWS V14.01,2013-04-10 18:39:00,
2013-04-10 14:44:00,52.5,28.3,30.00,ENE,66,3.6,9.5,39,0.00,,---,0.00,VWS V14.01,2013-04-10 18:44:00,
2013-04-10 14:50:00,52.7,27.8,30.00,NE,46,0.0,5.7,38,0.00,,---,0.00,VWS V14.01,2013-04-10 18:50:00,
2013-04-10 14:55:00,52.5,26.4,29.97,NNE,12,2.6,5.7,36,0.00,,---,0.00,VWS V14.01,2013-04-10 18:55:00,
2013-04-10 15:00:00,52.2,26.0,29.97,NNE,24,3.1,4.1,36,0.00,,---,0.00,VWS V14.01,2013-04-10 19:00:00,
2013-04-10 15:07:00,52.5,27.0,29.97,East,79,0.0,5.1,37,0.00,,---,0.00,VWS V14.01,2013-04-10 19:07:00,
2013-04-10 15:12:00,53.1,27.5,29.97,NE,34,2.6,5.7,37,0.00,,---,0.00,VWS V14.01,2013-04-10 19:12:00,
2013-04-10 15:17:00,52.9,26.7,29.97,ESE,111,4.1,4.1,36,0.00,,---,0.00,VWS V14.01,2013-04-10 19:17:00,
2013-04-10 15:22:00,53.4,27.1,29.97,East,81,4.6,4.6,36,0.00,,---,0.00,VWS V14.01,2013-04-10 19:22:00,
2013-04-10 15:27:00,54.0,27.6,29.97,East,83,0.0,4.6,36,0.00,,---,0.00,VWS V14.01,2013-04-10 19:27:00,
2013-04-10 15:33:00,53.6,24.5,29.97,ENE,71,2.6,3.6,32,0.00,,---,0.00,VWS V14.01,2013-04-10 19:33:00,
2013-04-10 15:39:00,53.4,24.3,29.97,ESE,117,0.0,0.0,32,0.00,,---,0.00,VWS V14.01,2013-04-10 19:39:00,
2013-04-10 15:44:00,54.1,25.0,29.97,East,100,3.1,5.7,32,0.00,,---,0.00,VWS V14.01,2013-04-10 19:44:00,
2013-04-10 15:49:00,54.3,25.1,29.97,East,88,4.1,6.7,32,0.00,,---,0.00,VWS V14.01,2013-04-10 19:49:00,
2013-04-10 15:55:00,54.1,25.0,29.94,ESE,108,2.6,2.6,32,0.00,,---,0.00,VWS V14.01,2013-04-10 19:55:00,
2013-04-10 16:00:00,54.1,25.0,29.94,SE,126,6.2,6.7,32,0.00,,---,0.00,VWS V14.01,2013-04-10 20:00:00,
2013-04-10 16:08:00,54.0,24.8,29.94,NNE,32,3.1,4.6,32,0.00,,---,0.00,VWS V14.01,2013-04-10 20:08:00,
2013-04-10 16:14:00,54.5,26.0,29.94,ESE,120,0.0,5.7,33,0.00,,---,0.00,VWS V14.01,2013-04-10 20:14:00,
2013-04-10 16:19:00,54.7,25.4,29.94,SE,144,4.6,4.6,32,0.00,,---,0.00,VWS V14.01,2013-04-10 20:19:00,
2013-04-10 16:24:00,54.9,25.6,29.94,SSE,153,6.2,6.2,32,0.00,,---,0.00,VWS V14.01,2013-04-10 20:24:00,
2013-04-10 16:31:00,55.4,25.3,29.94,ESE,112,6.2,6.2,31,0.00,,---,0.00,VWS V14.01,2013-04-10 20:31:00,
2013-04-10 16:36:00,55.4,25.3,29.94,East,99,4.6,7.2,31,0.00,,---,0.00,VWS V14.01,2013-04-10 20:36:00,
2013-04-10 16:41:00,55.2,25.1,29.94,NE,47,4.1,4.1,31,0.00,,---,0.00,VWS V14.01,2013-04-10 20:41:00,
2013-04-10 16:47:00,54.7,24.7,29.94,East,94,3.6,3.6,31,0.00,,---,0.00,VWS V14.01,2013-04-10 20:47:00,
2013-04-10 16:52:00,54.9,24.8,29.94,ESE,111,7.2,9.3,31,0.00,,---,0.00,VWS V14.01,2013-04-10 20:52:00,
2013-04-10 16:57:00,54.3,24.4,29.91,ESE,107,6.2,9.3,31,0.00,,---,0.00,VWS V14.01,2013-04-10 20:57:00,
2013-04-10 17:02:00,53.6,23.7,29.91,East,88,7.2,7.2,31,0.00,,---,0.00,VWS V14.01,2013-04-10 21:02:00,
2013-04-10 17:08:00,53.1,24.0,29.91,ESE,104,3.1,7.2,32,0.00,,---,0.00,VWS V14.01,2013-04-10 21:08:00,
2013-04-10 17:14:00,52.2,24.0,29.91,SSE,158,8.7,8.7,33,0.00,,---,0.00,VWS V14.01,2013-04-10 21:14:00,
2013-04-10 17:20:00,52.5,25.7,29.91,SSW,198,4.6,9.3,35,0.00,,---,0.00,VWS V14.01,2013-04-10 21:20:00,
2013-04-10 17:25:00,52.5,27.0,29.94,SW,214,6.2,6.7,37,0.00,,---,0.00,VWS V14.01,2013-04-10 21:25:00,
2013-04-10 17:30:00,52.0,25.9,29.94,ESE,123,2.6,3.6,36,0.00,,---,0.00,VWS V14.01,2013-04-10 21:30:00,
2013-04-10 17:35:00,51.6,26.2,29.94,SE,131,4.6,8.7,37,0.00,,---,0.00,VWS V14.01,2013-04-10 21:35:00,
2013-04-10 17:41:00,51.3,25.9,29.94,SSE,151,2.6,6.2,37,0.00,,---,0.00,VWS V14.01,2013-04-10 21:41:00,
2013-04-10 17:46:00,51.1,26.4,29.94,SSE,151,4.6,6.7,38,0.00,,---,0.00,VWS V14.01,2013-04-10 21:46:00,
2013-04-10 17:52:00,50.9,26.8,29.94,ESE,104,3.1,8.7,39,0.00,,---,0.00,VWS V14.01,2013-04-10 21:52:00,
2013-04-10 17:58:00,50.7,26.7,29.94,ESE,115,2.6,4.1,39,0.00,,---,0.00,VWS V14.01,2013-04-10 21:58:00,
2013-04-10 18:03:00,50.9,26.8,29.94,South,185,4.1,6.2,39,0.00,,---,0.00,VWS V14.01,2013-04-10 22:03:00,
2013-04-10 18:08:00,50.7,26.7,29.97,SSE,161,6.2,7.2,39,0.00,,---,0.00,VWS V14.01,2013-04-10 22:08:00,
2013-04-10 18:13:00,50.5,26.5,29.97,SE,126,5.7,7.2,39,0.00,,---,0.00,VWS V14.01,2013-04-10 22:13:00,
2013-04-10 18:20:00,50.4,26.4,29.97,SE,138,0.0,2.6,39,0.00,,---,0.00,VWS V14.01,2013-04-10 22:20:00,
2013-04-10 18:25:00,50.4,27.0,29.97,SE,129,4.6,7.2,40,0.00,,---,0.00,VWS V14.01,2013-04-10 22:25:00,
2013-04-10 18:31:00,50.2,26.8,29.97,ESE,108,0.0,3.1,40,0.00,,---,0.00,VWS V14.01,2013-04-10 22:31:00,
2013-04-10 18:37:00,49.8,26.5,29.97,SSE,147,3.6,4.1,40,0.00,,---,0.00,VWS V14.01,2013-04-10 22:37:00,
2013-04-10 18:42:00,49.5,26.2,29.97,SE,124,3.1,4.6,40,0.00,,---,0.00,VWS V14.01,2013-04-10 22:42:00,
2013-04-10 18:48:00,49.3,26.0,29.97,SE,130,3.1,3.1,40,0.00,,---,0.00,VWS V14.01,2013-04-10 22:48:00,
2013-04-10 18:53:00,49.1,26.4,29.97,SSE,153,0.0,2.6,41,0.00,,---,0.00,VWS V14.01,2013-04-10 22:53:00,
2013-04-10 18:58:00,49.1,26.4,29.97,SE,144,6.2,6.7,41,0.00,,---,0.00,VWS V14.01,2013-04-10 22:58:00,
2013-04-10 19:03:00,48.9,26.3,29.97,ESE,120,3.1,5.7,41,0.00,,---,0.00,VWS V14.01,2013-04-10 23:03:00,
2013-04-10 19:09:00,48.7,26.1,29.94,SSE,159,8.7,8.7,41,0.00,,---,0.00,VWS V14.01,2013-04-10 23:09:00,
2013-04-10 19:14:00,48.6,26.0,29.94,SSE,150,9.5,9.5,41,0.00,,---,0.00,VWS V14.01,2013-04-10 23:14:00,
2013-04-10 19:19:00,48.4,26.4,29.94,SE,128,3.6,4.6,42,0.00,,---,0.00,VWS V14.01,2013-04-10 23:19:00,
2013-04-10 19:24:00,48.2,26.8,29.91,SE,143,9.3,12.6,43,0.00,,---,0.00,VWS V14.01,2013-04-10 23:24:00,
2013-04-10 19:30:00,47.8,27.0,29.91,SSE,163,5.7,6.7,44,0.00,,---,0.00,VWS V14.01,2013-04-10 23:30:00,
2013-04-10 19:35:00,47.7,27.9,29.91,South,172,9.3,9.3,46,0.00,,---,0.00,VWS V14.01,2013-04-10 23:35:00,
2013-04-10 19:41:00,47.8,28.6,29.94,SSE,165,9.3,9.5,47,0.00,,---,0.00,VWS V14.01,2013-04-10 23:41:00,
2013-04-10 19:47:00,47.7,29.0,29.94,SE,135,6.7,9.5,48,0.00,,---,0.00,VWS V14.01,2013-04-10 23:47:00,
2013-04-10 19:53:00,47.5,29.3,29.91,WSW,247,4.6,8.7,49,0.00,,---,0.00,VWS V14.01,2013-04-10 23:53:00,
2013-04-10 19:59:00,47.3,29.6,29.91,SSW,199,9.3,9.3,50,0.00,,---,0.00,VWS V14.01,2013-04-10 23:59:00,
2013-04-10 20:04:00,47.3,30.1,29.91,SSE,150,4.6,11.6,51,0.00,,---,0.00,VWS V14.01,2013-04-11 00:04:00,
2013-04-10 20:09:00,47.1,30.4,29.91,South,172,8.7,10.0,52,0.00,,---,0.00,VWS V14.01,2013-04-11 00:09:00,
2013-04-10 20:15:00,47.1,30.4,29.91,South,175,4.6,8.7,52,0.00,,---,0.00,VWS V14.01,2013-04-11 00:15:00,
2013-04-10 20:20:00,46.9,30.2,29.91,SSW,195,9.3,9.3,52,0.00,,---,0.00,VWS V14.01,2013-04-11 00:20:00,
2013-04-10 20:26:00,46.9,30.2,29.91,ESE,123,6.2,7.2,52,0.00,,---,0.00,VWS V14.01,2013-04-11 00:26:00,
2013-04-10 20:31:00,46.8,30.5,29.91,ESE,116,7.2,7.2,53,0.00,,---,0.00,VWS V14.01,2013-04-11 00:31:00,
2013-04-10 20:37:00,46.6,30.4,29.91,SE,136,6.7,9.3,53,0.00,,---,0.00,VWS V14.01,2013-04-11 00:37:00,
2013-04-10 20:42:00,46.4,30.2,29.88,SE,130,5.7,10.0,53,0.00,,---,0.00,VWS V14.01,2013-04-11 00:42:00,
2013-04-10 20:48:00,46.2,30.0,29.88,SSE,155,6.2,7.2,53,0.00,,---,0.00,VWS V14.01,2013-04-11 00:48:00,
2013-04-10 20:54:00,46.4,30.7,29.91,SSW,199,6.2,7.2,54,0.00,,---,0.00,VWS V14.01,2013-04-11 00:54:00,
2013-04-10 20:59:00,46.6,30.8,29.91,SSE,159,6.2,7.2,54,0.00,,---,0.00,VWS V14.01,2013-04-11 00:59:00,
2013-04-10 21:05:00,46.6,30.8,29.91,SSE,162,6.2,8.7,54,0.00,,---,0.00,VWS V14.01,2013-04-11 01:05:00,
2013-04-10 21:10:00,46.8,31.0,29.91,SE,145,6.7,6.7,54,0.00,,---,0.00,VWS V14.01,2013-04-11 01:10:00,
2013-04-10 21:15:00,46.8,31.0,29.91,SSE,162,7.2,7.2,54,0.00,,---,0.00,VWS V14.01,2013-04-11 01:15:00,
2013-04-10 21:22:00,46.8,31.0,29.91,SE,125,8.7,9.3,54,0.00,,---,0.00,VWS V14.01,2013-04-11 01:22:00,
2013-04-10 21:27:00,46.8,31.0,29.91,South,189,5.1,8.7,54,0.00,,---,0.00,VWS V14.01,2013-04-11 01:27:00,
2013-04-10 21:32:00,46.9,30.7,29.91,ESE,103,4.1,4.1,53,0.00,,---,0.00,VWS V14.01,2013-04-11 01:32:00,
2013-04-10 21:37:00,46.9,30.7,29.91,SSW,199,4.1,5.7,53,0.00,,---,0.00,VWS V14.01,2013-04-11 01:37:00,
2013-04-10 21:42:00,47.1,30.9,29.94,WNW,303,3.1,3.1,53,0.00,,---,0.00,VWS V14.01,2013-04-11 01:42:00,
2013-04-10 21:48:00,47.1,30.9,29.94,West,279,2.6,5.7,53,0.00,,---,0.00,VWS V14.01,2013-04-11 01:48:00,
2013-04-10 21:54:00,47.3,31.0,30.00,SSW,212,6.2,6.2,53,0.00,,---,0.00,VWS V14.01,2013-04-11 01:54:00,
2013-04-10 22:00:00,47.3,31.0,30.00,South,175,6.7,6.7,53,0.00,,---,0.00,VWS V14.01,2013-04-11 02:00:00,
2013-04-10 22:05:00,47.3,31.5,30.00,SSW,192,6.2,6.7,54,0.00,,---,0.00,VWS V14.01,2013-04-11 02:05:00,
2013-04-10 22:10:00,47.1,31.4,29.94,SSW,196,6.7,6.7,54,0.00,,---,0.00,VWS V14.01,2013-04-11 02:10:00,
2013-04-10 22:15:00,47.1,31.8,29.94,South,181,4.1,6.2,55,0.00,,---,0.00,VWS V14.01,2013-04-11 02:15:00,
2013-04-10 22:21:00,47.1,31.8,29.94,SE,135,9.3,9.3,55,0.00,,---,0.00,VWS V14.01,2013-04-11 02:21:00,
2013-04-10 22:26:00,47.1,31.8,29.91,SSW,213,4.6,6.7,55,0.00,,---,0.00,VWS V14.01,2013-04-11 02:26:00,
2013-04-10 22:32:00,47.1,32.2,29.91,South,182,6.7,6.7,56,0.00,,---,0.00,VWS V14.01,2013-04-11 02:32:00,
2013-04-10 22:37:00,46.9,32.1,29.91,SSW,199,4.1,6.7,56,0.00,,---,0.00,VWS V14.01,2013-04-11 02:37:00,
2013-04-10 22:43:00,46.8,32.3,29.91,SE,133,6.2,6.7,57,0.00,,---,0.00,VWS V14.01,2013-04-11 02:43:00,
2013-04-10 22:48:00,46.6,32.2,29.91,SE,124,6.7,7.2,57,0.00,,---,0.00,VWS V14.01,2013-04-11 02:48:00,
2013-04-10 22:54:00,46.6,32.6,29.91,SSE,161,5.7,5.7,58,0.00,,---,0.00,VWS V14.01,2013-04-11 02:54:00,
2013-04-10 23:00:00,46.6,32.6,29.91,SE,145,4.1,8.2,58,0.00,,---,0.00,VWS V14.01,2013-04-11 03:00:00,
2013-04-10 23:05:00,46.6,33.0,29.91,South,172,3.6,6.2,59,0.00,,---,0.00,VWS V14.01,2013-04-11 03:05:00,
2013-04-10 23:11:00,46.6,33.0,29.91,ESE,114,3.6,3.6,59,0.00,,---,0.00,VWS V14.01,2013-04-11 03:11:00,
2013-04-10 23:17:00,46.6,33.5,29.91,ESE,103,0.0,4.1,60,0.00,,---,0.00,VWS V14.01,2013-04-11 03:17:00,
2013-04-10 23:22:00,46.6,33.5,29.91,ESE,117,0.0,3.6,60,0.00,,---,0.00,VWS V14.01,2013-04-11 03:22:00,
2013-04-10 23:28:00,46.6,33.0,29.91,ESE,105,2.6,3.6,59,0.00,,---,0.00,VWS V14.01,2013-04-11 03:28:00,
2013-04-10 23:33:00,46.6,33.0,29.91,East,92,0.0,4.1,59,0.00,,---,0.00,VWS V14.01,2013-04-11 03:33:00,
2013-04-10 23:38:00,46.6,33.5,29.91,ESE,109,0.0,0.0,60,0.00,,---,0.00,VWS V14.01,2013-04-11 03:38:00,
2013-04-10 23:43:00,46.6,33.5,29.91,East,87,0.0,0.0,60,0.00,,---,0.00,VWS V14.01,2013-04-11 03:43:00,
2013-04-10 23:49:00,46.6,33.5,29.91,East,95,0.0,3.1,60,0.00,,---,0.00,VWS V14.01,2013-04-11 03:49:00,
2013-04-10 23:54:00,46.6,33.5,29.91,SE,145,0.0,3.6,60,0.00,,---,0.00,VWS V14.01,2013-04-11 03:54:00,
2013-04-10 23:59:00,46.6,33.5,29.91,ESE,113,3.6,3.6,60,0.00,,---,0.00,VWS V14.01,2013-04-11 03:59:00,